Tracking 19817 objects as of 20-Aug-2019
HD Live streaming from Space Station
objects crossing your sky now

COSMOS 2251 DEB

Track COSMOS 2251 DEB now!
10-day predictions


NORAD ID: 37521
Int'l Code: 1993-036BNA
Perigee: 562.5 km
Apogee: 634.8 km
Inclination: 74.0 °
Period: 96.5 minutes
Semi major axis: 6969 km
RCS: 0.0084 m2 (small)
Launch date: June 16, 1993
Source: Commonwealth of Independent States (former USSR) (CIS)
Launch site: PLESETSK MISSILE AND SPACE COMPLEX (PKMTR)

Note: This is SATELLITE DEBRIS
aabbcc
Your satellite tracking list
Your tracking list is empty




NASA's NSSDC Master Catalog

Two Line Element Set (TLE):
1 37521U 93036BNA 19230.38112562 +.00001263 +00000-0 +12511-3 0  9997
2 37521 074.0482 111.6090 0051913 043.5847 072.8712 14.92063899179480
Source of the keplerian elements: AFSPC